Regional Weather Roundup
Issued by NWS

Home | Current Version | Previous Version | Graphics & Text | Print | Product List | Glossary On
Versions: 1 2 3 4 5 6 7 8 9 10 11 12 13 14 15 16 17 18 19 20 21 22 23 24 25 26 27 28 29 30 31 32 33 34 35 36 37 38 39 40 41 42 43 44 45 46 47 48 49 50
000
ASUS44 KMEG 281910
RWRTN
TENNESSEE HOURLY STATE WEATHER ROUNDUP
NATIONAL WEATHER SERVICE MEMPHIS TN
100 PM CST FRI NOV 28 2014

TNZ002-004-019-021-049-052-054-088>092-282000-
WEST TENNESSEE

CITY           SKY/WX    TMP DP  RH WIND       PRES   REMARKS
MEMPHIS INTL   SUNNY     53  25  33 S12G22    30.26F
NWS MEMPHIS      N/A     52 N/A N/A MISG        N/A
JACKSON        SUNNY     50  25  37 S12       30.26F
DYERSBURG      SUNNY     48  25  40 S14       30.25F
UNION CITY     SUNNY     45  28  53 S15       30.22F
PARIS            N/A     45  27  49 S13       30.24F
HUNTINGDON     SUNNY     46  23  40 S13       30.26F
LEXINGTON      SUNNY     46  23  39 S10       30.27F
SAVANNAH       SUNNY     46  25  42 S9        30.29F
$$

TNZ008-025-027-028-033-062-065-066-282000-
NORTH MIDDLE TENNESSEE

CITY           SKY/WX    TMP DP  RH WIND       PRES   REMARKS
NASHVILLE      SUNNY     45  21  38 SW7       30.30F
CLARKSVILLE    SUNNY     43  25  49 S9        30.27F
COOKEVILLE     SUNNY     43  19  39 S3        30.29F
CROSSVILLE     SUNNY     42  10  27 VRB6      30.26F
$$

TNZ061-075-076-078-094-096-097-282000-
SOUTH MIDDLE TENNESSEE

CITY           SKY/WX    TMP DP  RH WIND       PRES   REMARKS
FAYETTEVILLE   SUNNY     45  18  33 MISG      30.31F
TULLAHOMA      SUNNY     43   9  24 S5        30.31F
WINCHESTER     SUNNY     46  16  29 CALM      30.30F
MCMINNVILLE    SUNNY     45  16  31 CALM      30.29F
COLUMBIA       SUNNY     46  25  42 S9        30.26F
SHELBYVILLE    SUNNY     45  19  36 S7        30.31F
$$

TNZ017-018-042-046-047-282000-
NORTHEAST TENNESSEE

CITY           SKY/WX    TMP DP  RH WIND       PRES   REMARKS
TRI CITIES     MOSUNNY   35  21  56 S6        30.31F WCI  30
ELIZABETHTON   CLEAR     34  19  55 VRB6      30.30F WCI  29
$$

TNZ012-013-036-069-073-074-282000-
CENTRAL EAST TENNESSEE

CITY           SKY/WX    TMP DP  RH WIND       PRES   REMARKS
KNOXVILLE      MOSUNNY   39  19  44 CALM      30.33F
OAK RIDGE      SUNNY     41  19  41 SE5       30.34F
GATLINBURG     CLEAR     37  19  48 CALM      30.32F
MORRISTOWN     CLEAR     37  21  52 VRB5      30.32F WCI  34
$$

TNZ083-085-099-282000-
SOUTHEAST TENNESSEE

CITY           SKY/WX    TMP DP  RH WIND       PRES   REMARKS
CHATTANOOGA    SUNNY     44  15  31 CALM      30.35F
$$

SKY/WX REPORTED AS FAIR MEANS FEW OR NO CLOUDS BELOW
12 THOUSAND FEET.




USA.gov is the U.S. government's official web portal to all federal, state and local government web resources and services.